Year,Month,Day,Hour,Minute,Value (Times are PST for temperature in C)
2014,10,05,00,00,14.60
2014,10,05,00,01,14.60
2014,10,05,00,02,14.60
2014,10,05,00,03,14.60
2014,10,05,00,04,14.60
2014,10,05,00,05,14.60
2014,10,05,00,06,14.60
2014,10,05,00,07,14.60
2014,10,05,00,08,14.60
2014,10,05,00,09,14.60
2014,10,05,00,10,14.60
2014,10,05,00,11,14.50
2014,10,05,00,12,14.50
2014,10,05,00,13,14.50
2014,10,05,00,14,14.50
2014,10,05,00,15,14.50
2014,10,05,00,16,14.50
2014,10,05,00,17,14.50
2014,10,05,00,18,14.50
2014,10,05,00,19,14.50
2014,10,05,00,20,14.50
2014,10,05,00,21,14.50
2014,10,05,00,22,14.50
2014,10,05,00,23,14.50
2014,10,05,00,24,14.50
2014,10,05,00,25,14.50
2014,10,05,00,26,14.50
2014,10,05,00,27,14.50
2014,10,05,00,28,14.50
2014,10,05,00,29,14.50
2014,10,05,00,30,14.50
2014,10,05,00,31,14.50
2014,10,05,00,32,14.50
2014,10,05,00,33,14.50
2014,10,05,00,34,14.40
2014,10,05,00,35,14.40
2014,10,05,00,36,14.40
2014,10,05,00,37,14.40
2014,10,05,00,38,14.40
2014,10,05,00,39,14.40
2014,10,05,00,40,14.40
2014,10,05,00,41,14.30
2014,10,05,00,42,14.30
2014,10,05,00,43,14.30
2014,10,05,00,44,14.30
2014,10,05,00,45,14.30
2014,10,05,00,46,14.40
2014,10,05,00,47,14.40
2014,10,05,00,48,14.40
2014,10,05,00,49,14.40
2014,10,05,00,50,14.40
2014,10,05,00,51,14.40
2014,10,05,00,52,14.40
2014,10,05,00,53,14.40
2014,10,05,00,54,14.40
2014,10,05,00,55,14.40
2014,10,05,00,56,14.40
2014,10,05,00,57,14.40
2014,10,05,00,58,14.40
2014,10,05,00,59,14.40
2014,10,05,01,00,14.40
2014,10,05,01,01,14.40
2014,10,05,01,02,14.40
2014,10,05,01,03,14.40
2014,10,05,01,04,14.40
2014,10,05,01,05,14.40
2014,10,05,01,06,14.40
2014,10,05,01,07,14.40
2014,10,05,01,08,14.40
2014,10,05,01,09,14.40
2014,10,05,01,10,14.40
2014,10,05,01,11,14.40
2014,10,05,01,12,14.40
2014,10,05,01,13,14.40
2014,10,05,01,14,14.40
2014,10,05,01,15,14.40
2014,10,05,01,16,14.40
2014,10,05,01,17,14.40
2014,10,05,01,18,14.50
2014,10,05,01,19,14.50
2014,10,05,01,20,14.50
2014,10,05,01,21,14.50
2014,10,05,01,22,14.50
2014,10,05,01,23,14.50
2014,10,05,01,24,14.50
2014,10,05,01,25,14.50
2014,10,05,01,26,14.50
2014,10,05,01,27,14.50
2014,10,05,01,28,14.50
2014,10,05,01,29,14.50
2014,10,05,01,30,14.50
2014,10,05,01,31,14.50
2014,10,05,01,32,14.50
2014,10,05,01,33,14.50
2014,10,05,01,34,14.50
2014,10,05,01,35,14.50
2014,10,05,01,36,14.50
2014,10,05,01,37,14.60
2014,10,05,01,38,14.60
2014,10,05,01,39,14.60
2014,10,05,01,40,14.60
2014,10,05,01,41,14.60
2014,10,05,01,42,14.60
2014,10,05,01,43,14.60
2014,10,05,01,44,14.60
2014,10,05,01,45,14.60
2014,10,05,01,46,14.60
2014,10,05,01,47,14.60
2014,10,05,01,48,14.70
2014,10,05,01,49,14.70
2014,10,05,01,50,14.70
2014,10,05,01,51,14.70
2014,10,05,01,52,14.70
2014,10,05,01,53,14.70
2014,10,05,01,54,14.70
2014,10,05,01,55,14.70
2014,10,05,01,56,14.70
2014,10,05,01,57,14.60
2014,10,05,01,58,14.60
2014,10,05,01,59,14.60
2014,10,05,02,00,14.60
2014,10,05,02,01,14.60
2014,10,05,02,02,14.70
2014,10,05,02,03,14.70
2014,10,05,02,04,14.70
2014,10,05,02,05,14.70
2014,10,05,02,06,14.70
2014,10,05,02,07,14.70
2014,10,05,02,08,14.70
2014,10,05,02,09,14.70
2014,10,05,02,10,14.70
2014,10,05,02,11,14.70
2014,10,05,02,12,14.70
2014,10,05,02,13,14.70
2014,10,05,02,14,14.60
2014,10,05,02,15,14.60
2014,10,05,02,16,14.60
2014,10,05,02,17,14.60
2014,10,05,02,18,14.60
2014,10,05,02,19,14.60
2014,10,05,02,20,14.50
2014,10,05,02,21,14.50
2014,10,05,02,22,14.50
2014,10,05,02,23,14.50
2014,10,05,02,24,14.50
2014,10,05,02,25,14.50
2014,10,05,02,26,14.50
2014,10,05,02,27,14.50
2014,10,05,02,28,14.50
2014,10,05,02,29,14.50
2014,10,05,02,30,14.50
2014,10,05,02,31,14.50
2014,10,05,02,32,14.50
2014,10,05,02,33,14.50
2014,10,05,02,34,14.50
2014,10,05,02,35,14.50
2014,10,05,02,36,14.50
2014,10,05,02,37,14.50
2014,10,05,02,38,14.50
2014,10,05,02,39,14.50
2014,10,05,02,40,14.50
2014,10,05,02,41,14.50
2014,10,05,02,42,14.50
2014,10,05,02,43,14.60
2014,10,05,02,44,14.60
2014,10,05,02,45,14.60
2014,10,05,02,46,14.60
2014,10,05,02,47,14.60
2014,10,05,02,48,14.60
2014,10,05,02,49,14.60
2014,10,05,02,50,14.60
2014,10,05,02,51,14.60
2014,10,05,02,52,14.60
2014,10,05,02,53,14.60
2014,10,05,02,54,14.60
2014,10,05,02,55,14.60
2014,10,05,02,56,14.60
2014,10,05,02,57,14.60
2014,10,05,02,58,14.60
2014,10,05,02,59,14.60
2014,10,05,03,00,14.60
2014,10,05,03,01,14.60
2014,10,05,03,02,14.60
2014,10,05,03,03,14.60
2014,10,05,03,04,14.60
2014,10,05,03,05,14.60
2014,10,05,03,06,14.60
2014,10,05,03,07,14.60
2014,10,05,03,08,14.60
2014,10,05,03,09,14.60
2014,10,05,03,10,14.60
2014,10,05,03,11,14.60
2014,10,05,03,12,14.60
2014,10,05,03,13,14.60
2014,10,05,03,14,14.60
2014,10,05,03,15,14.60
2014,10,05,03,16,14.60
2014,10,05,03,17,14.60
2014,10,05,03,18,14.60
2014,10,05,03,19,14.60
2014,10,05,03,20,14.60
2014,10,05,03,21,14.60
2014,10,05,03,22,14.60
2014,10,05,03,23,14.60
2014,10,05,03,24,14.60
2014,10,05,03,25,14.60
2014,10,05,03,26,14.60
2014,10,05,03,27,14.60
2014,10,05,03,28,14.60
2014,10,05,03,29,14.60
2014,10,05,03,30,14.60
2014,10,05,03,31,14.60
2014,10,05,03,32,14.60
2014,10,05,03,33,14.60
2014,10,05,03,34,14.60
2014,10,05,03,35,14.50
2014,10,05,03,36,14.50
2014,10,05,03,37,14.50
2014,10,05,03,38,14.50
2014,10,05,03,39,14.50
2014,10,05,03,40,14.50
2014,10,05,03,41,14.50
2014,10,05,03,42,14.50
2014,10,05,03,43,14.50
2014,10,05,03,44,14.50
2014,10,05,03,45,14.50
2014,10,05,03,46,14.50
2014,10,05,03,47,14.50
2014,10,05,03,48,14.50
2014,10,05,03,49,14.50
2014,10,05,03,50,14.40
2014,10,05,03,51,14.40
2014,10,05,03,52,14.40
2014,10,05,03,53,14.40
2014,10,05,03,54,14.40
2014,10,05,03,55,14.40
2014,10,05,03,56,14.40
2014,10,05,03,57,14.40
2014,10,05,03,58,14.40
2014,10,05,03,59,14.30
2014,10,05,04,00,14.30
2014,10,05,04,01,14.30
2014,10,05,04,02,14.30
2014,10,05,04,03,14.30
2014,10,05,04,04,14.30
2014,10,05,04,05,14.30
2014,10,05,04,06,14.30
2014,10,05,04,07,14.30
2014,10,05,04,08,14.30
2014,10,05,04,09,14.30
2014,10,05,04,10,14.30
2014,10,05,04,11,14.30
2014,10,05,04,12,14.20
2014,10,05,04,13,14.20
2014,10,05,04,14,14.20
2014,10,05,04,15,14.20
2014,10,05,04,16,14.20
2014,10,05,04,17,14.20
2014,10,05,04,18,14.20
2014,10,05,04,19,14.20
2014,10,05,04,20,14.20
2014,10,05,04,21,14.20
2014,10,05,04,22,14.20
2014,10,05,04,23,14.20
2014,10,05,04,24,14.20
2014,10,05,04,25,14.20
2014,10,05,04,26,14.20
2014,10,05,04,27,14.20
2014,10,05,04,28,14.20
2014,10,05,04,29,14.20
2014,10,05,04,30,14.20
2014,10,05,04,31,14.30
2014,10,05,04,32,14.30
2014,10,05,04,33,14.30
2014,10,05,04,34,14.30
2014,10,05,04,35,14.30
2014,10,05,04,36,14.30
2014,10,05,04,37,14.30
2014,10,05,04,38,14.30
2014,10,05,04,39,14.30
2014,10,05,04,40,14.40
2014,10,05,04,41,14.40
2014,10,05,04,42,14.40
2014,10,05,04,43,14.40
2014,10,05,04,44,14.40
2014,10,05,04,45,14.40
2014,10,05,04,46,14.40
2014,10,05,04,47,14.40
2014,10,05,04,48,14.40
2014,10,05,04,49,14.40
2014,10,05,04,50,14.50
2014,10,05,04,51,14.50
2014,10,05,04,52,14.50
2014,10,05,04,53,14.50
2014,10,05,04,54,14.50
2014,10,05,04,55,14.50
2014,10,05,04,56,14.50
2014,10,05,04,57,14.50
2014,10,05,04,58,14.50
2014,10,05,04,59,14.60
2014,10,05,05,00,14.60
2014,10,05,05,01,14.60
2014,10,05,05,02,14.60
2014,10,05,05,03,14.60
2014,10,05,05,04,14.60
2014,10,05,05,05,14.60
2014,10,05,05,06,14.60
2014,10,05,05,07,14.60
2014,10,05,05,08,14.60
2014,10,05,05,09,14.60
2014,10,05,05,10,14.60
2014,10,05,05,11,14.60
2014,10,05,05,12,14.60
2014,10,05,05,13,14.60
2014,10,05,05,14,14.70
2014,10,05,05,15,14.70
2014,10,05,05,16,14.70
2014,10,05,05,17,14.70
2014,10,05,05,18,14.70
2014,10,05,05,19,14.70
2014,10,05,05,20,14.80
2014,10,05,05,21,14.80
2014,10,05,05,22,14.80
2014,10,05,05,23,14.80
2014,10,05,05,24,14.80
2014,10,05,05,25,14.80
2014,10,05,05,26,14.80
2014,10,05,05,27,14.80
2014,10,05,05,28,14.80
2014,10,05,05,29,14.80
2014,10,05,05,30,14.80
2014,10,05,05,31,14.80
2014,10,05,05,32,14.80
2014,10,05,05,33,14.80
2014,10,05,05,34,14.80
2014,10,05,05,35,14.80
2014,10,05,05,36,14.80
2014,10,05,05,37,14.80
2014,10,05,05,38,14.80
2014,10,05,05,39,14.80
2014,10,05,05,40,14.80
2014,10,05,05,41,14.80
2014,10,05,05,42,14.80
2014,10,05,05,43,14.80
2014,10,05,05,44,14.80
2014,10,05,05,45,14.80
2014,10,05,05,46,14.80
2014,10,05,05,47,14.80
2014,10,05,05,48,14.80
2014,10,05,05,49,14.80
2014,10,05,05,50,14.80
2014,10,05,05,51,14.80
2014,10,05,05,52,14.80
2014,10,05,05,53,14.80
2014,10,05,05,54,14.80
2014,10,05,05,55,14.80
2014,10,05,05,56,14.80
2014,10,05,05,57,14.80
2014,10,05,05,58,14.80
2014,10,05,05,59,14.80
2014,10,05,06,00,14.80
2014,10,05,06,01,14.80
2014,10,05,06,02,14.80
2014,10,05,06,03,14.80
2014,10,05,06,04,14.80
2014,10,05,06,05,14.80
2014,10,05,06,06,14.80
2014,10,05,06,07,14.80
2014,10,05,06,08,14.80
2014,10,05,06,09,14.80
2014,10,05,06,10,14.80
2014,10,05,06,11,14.80
2014,10,05,06,12,14.80
2014,10,05,06,13,14.80
2014,10,05,06,14,14.80
2014,10,05,06,15,14.80
2014,10,05,06,16,14.80
2014,10,05,06,17,14.80
2014,10,05,06,18,14.70
2014,10,05,06,19,14.70
2014,10,05,06,20,14.70
2014,10,05,06,21,14.70
2014,10,05,06,22,14.70
2014,10,05,06,23,14.70
2014,10,05,06,24,14.70
2014,10,05,06,25,14.70
2014,10,05,06,26,14.70
2014,10,05,06,27,14.60
2014,10,05,06,28,14.60
2014,10,05,06,29,14.60
2014,10,05,06,30,14.60
2014,10,05,06,31,14.60
2014,10,05,06,32,14.60
2014,10,05,06,33,14.50
2014,10,05,06,34,14.50
2014,10,05,06,35,14.50
2014,10,05,06,36,14.50
2014,10,05,06,37,14.50
2014,10,05,06,38,14.50
2014,10,05,06,39,14.50
2014,10,05,06,40,14.50
2014,10,05,06,41,14.50
2014,10,05,06,42,14.50
2014,10,05,06,43,14.40
2014,10,05,06,44,14.40
2014,10,05,06,45,14.40
2014,10,05,06,46,14.40
2014,10,05,06,47,14.40
2014,10,05,06,48,14.40
2014,10,05,06,49,14.30
2014,10,05,06,50,14.30
2014,10,05,06,51,14.30
2014,10,05,06,52,14.30
2014,10,05,06,53,14.30
2014,10,05,06,54,14.30
2014,10,05,06,55,14.30
2014,10,05,06,56,14.30
2014,10,05,06,57,14.20
2014,10,05,06,58,14.20
2014,10,05,06,59,14.20
2014,10,05,07,00,14.20
2014,10,05,07,01,14.20
2014,10,05,07,02,14.20
2014,10,05,07,03,14.20
2014,10,05,07,04,14.20
2014,10,05,07,05,14.20
2014,10,05,07,06,14.20
2014,10,05,07,07,14.20
2014,10,05,07,08,14.20
2014,10,05,07,09,14.20
2014,10,05,07,10,14.20
2014,10,05,07,11,14.20
2014,10,05,07,12,14.20
2014,10,05,07,13,14.20
2014,10,05,07,14,14.20
2014,10,05,07,15,14.20
2014,10,05,07,16,14.20
2014,10,05,07,17,14.20
2014,10,05,07,18,14.20
2014,10,05,07,19,14.20
2014,10,05,07,20,14.20
2014,10,05,07,21,14.20
2014,10,05,07,22,14.20
2014,10,05,07,23,14.20
2014,10,05,07,24,14.20
2014,10,05,07,25,14.20
2014,10,05,07,26,14.20
2014,10,05,07,27,14.20
2014,10,05,07,28,14.20
2014,10,05,07,29,14.20
2014,10,05,07,30,14.20
2014,10,05,07,31,14.20
2014,10,05,07,32,14.20
2014,10,05,07,33,14.20
2014,10,05,07,34,14.20
2014,10,05,07,35,14.20
2014,10,05,07,36,14.20
2014,10,05,07,37,14.20
2014,10,05,07,38,14.20
2014,10,05,07,39,14.20
2014,10,05,07,40,14.20
2014,10,05,07,41,14.20
2014,10,05,07,42,14.20
2014,10,05,07,43,14.20
2014,10,05,07,44,14.20
2014,10,05,07,45,14.20
2014,10,05,07,46,14.20
2014,10,05,07,47,14.20
2014,10,05,07,48,14.20
2014,10,05,07,49,14.20
2014,10,05,07,50,14.20
2014,10,05,07,51,14.20
2014,10,05,07,52,14.20
2014,10,05,07,53,14.20
2014,10,05,07,54,14.20
2014,10,05,07,55,14.20
2014,10,05,07,56,14.20
2014,10,05,07,57,14.20
2014,10,05,07,58,14.20
2014,10,05,07,59,14.20
2014,10,05,08,00,14.20
2014,10,05,08,01,14.20
2014,10,05,08,02,14.20
2014,10,05,08,03,14.20
2014,10,05,08,04,14.20
2014,10,05,08,05,14.20
2014,10,05,08,06,14.20
2014,10,05,08,07,14.20
2014,10,05,08,08,14.20
2014,10,05,08,09,14.20
2014,10,05,08,10,14.20
2014,10,05,08,11,14.20
2014,10,05,08,12,14.30
2014,10,05,08,13,14.30
2014,10,05,08,14,14.30
2014,10,05,08,15,14.40
2014,10,05,08,16,14.40
2014,10,05,08,17,14.50
2014,10,05,08,18,14.50
2014,10,05,08,19,14.60
2014,10,05,08,20,14.60
2014,10,05,08,21,14.80
2014,10,05,08,22,14.80
2014,10,05,08,23,14.90
2014,10,05,08,24,14.90
2014,10,05,08,25,15.00
2014,10,05,08,26,15.10
2014,10,05,08,27,15.10
2014,10,05,08,28,15.20
2014,10,05,08,29,15.30
2014,10,05,08,30,15.30
2014,10,05,08,31,15.30
2014,10,05,08,32,15.40
2014,10,05,08,33,15.50
2014,10,05,08,34,15.50
2014,10,05,08,35,15.50
2014,10,05,08,36,15.60
2014,10,05,08,37,15.60
2014,10,05,08,38,15.60
2014,10,05,08,39,15.60
2014,10,05,08,40,15.60
2014,10,05,08,41,15.50
2014,10,05,08,42,15.50
2014,10,05,08,43,15.50
2014,10,05,08,44,15.50
2014,10,05,08,45,15.50
2014,10,05,08,46,15.60
2014,10,05,08,47,15.60
2014,10,05,08,48,15.60
2014,10,05,08,49,15.70
2014,10,05,08,50,15.70
2014,10,05,08,51,15.80
2014,10,05,08,52,15.80
2014,10,05,08,53,15.80
2014,10,05,08,54,15.80
2014,10,05,08,55,15.80
2014,10,05,08,56,15.90
2014,10,05,08,57,15.90
2014,10,05,08,58,15.90
2014,10,05,08,59,16.00
2014,10,05,09,00,16.10
2014,10,05,09,01,16.10
2014,10,05,09,02,16.10
2014,10,05,09,03,16.10
2014,10,05,09,04,16.10
2014,10,05,09,05,16.10
2014,10,05,09,06,16.20
2014,10,05,09,07,16.20
2014,10,05,09,08,16.20
2014,10,05,09,09,16.20
2014,10,05,09,10,16.30
2014,10,05,09,11,16.30
2014,10,05,09,12,16.30
2014,10,05,09,13,16.30
2014,10,05,09,14,16.40
2014,10,05,09,15,16.40
2014,10,05,09,16,16.40
2014,10,05,09,17,16.40
2014,10,05,09,18,16.40
2014,10,05,09,19,16.40
2014,10,05,09,20,16.40
2014,10,05,09,21,16.40
2014,10,05,09,22,16.50
2014,10,05,09,23,16.60
2014,10,05,09,24,16.60
2014,10,05,09,25,16.60
2014,10,05,09,26,16.60
2014,10,05,09,27,16.70
2014,10,05,09,28,16.60
2014,10,05,09,29,16.70
2014,10,05,09,30,16.70
2014,10,05,09,31,16.70
2014,10,05,09,32,16.70
2014,10,05,09,33,16.70
2014,10,05,09,34,16.70
2014,10,05,09,35,16.70
2014,10,05,09,36,16.70
2014,10,05,09,37,16.70
2014,10,05,09,38,16.70
2014,10,05,09,39,16.80
2014,10,05,09,40,16.80
2014,10,05,09,41,16.80
2014,10,05,09,42,16.90
2014,10,05,09,43,16.90
2014,10,05,09,44,16.90
2014,10,05,09,45,17.00
2014,10,05,09,46,17.00
2014,10,05,09,47,17.00
2014,10,05,09,48,17.10
2014,10,05,09,49,17.10
2014,10,05,09,50,17.10
2014,10,05,09,51,17.10
2014,10,05,09,52,17.10
2014,10,05,09,53,17.10
2014,10,05,09,54,17.10
2014,10,05,09,55,17.20
2014,10,05,09,56,17.20
2014,10,05,09,57,17.20
2014,10,05,09,58,17.20
2014,10,05,09,59,17.20
2014,10,05,10,00,17.20
2014,10,05,10,01,17.20
2014,10,05,10,02,17.20
2014,10,05,10,03,17.20
2014,10,05,10,04,17.20
2014,10,05,10,05,17.20
2014,10,05,10,06,17.20
2014,10,05,10,07,17.20
2014,10,05,10,08,17.20
2014,10,05,10,09,17.10
2014,10,05,10,10,17.10
2014,10,05,10,11,17.10
2014,10,05,10,12,17.10
2014,10,05,10,13,17.10
2014,10,05,10,14,17.10
2014,10,05,10,15,17.10
2014,10,05,10,16,17.10
2014,10,05,10,17,17.20
2014,10,05,10,18,17.20
2014,10,05,10,19,17.20
2014,10,05,10,20,17.20
2014,10,05,10,21,17.30
2014,10,05,10,22,17.30
2014,10,05,10,23,17.30
2014,10,05,10,24,17.30
2014,10,05,10,25,17.30
2014,10,05,10,26,17.30
2014,10,05,10,27,17.30
2014,10,05,10,28,17.30
2014,10,05,10,29,17.30
2014,10,05,10,30,17.30
2014,10,05,10,31,17.30
2014,10,05,10,32,17.30
2014,10,05,10,33,17.30
2014,10,05,10,34,17.20
2014,10,05,10,35,17.20
2014,10,05,10,36,17.20
2014,10,05,10,37,17.20
2014,10,05,10,38,17.20
2014,10,05,10,39,17.20
2014,10,05,10,40,17.20
2014,10,05,10,41,17.20
2014,10,05,10,42,17.20
2014,10,05,10,43,17.20
2014,10,05,10,44,17.20
2014,10,05,10,45,17.20
2014,10,05,10,46,17.20
2014,10,05,10,47,17.30
2014,10,05,10,48,17.30
2014,10,05,10,49,17.30
2014,10,05,10,50,17.30
2014,10,05,10,51,17.30
2014,10,05,10,52,17.40
2014,10,05,10,53,17.40
2014,10,05,10,54,17.40
2014,10,05,10,55,17.40
2014,10,05,10,56,17.40
2014,10,05,10,57,17.40
2014,10,05,10,58,17.50
2014,10,05,10,59,17.60
2014,10,05,11,00,17.60
2014,10,05,11,01,17.70
2014,10,05,11,02,17.70
2014,10,05,11,03,17.70
2014,10,05,11,04,17.70
2014,10,05,11,05,17.70
2014,10,05,11,06,17.70
2014,10,05,11,07,17.70
2014,10,05,11,08,17.60
2014,10,05,11,09,17.60
2014,10,05,11,10,17.60
2014,10,05,11,11,17.70
2014,10,05,11,12,17.70
2014,10,05,11,13,17.80
2014,10,05,11,14,17.80
2014,10,05,11,15,17.90
2014,10,05,11,16,17.90
2014,10,05,11,17,17.90
2014,10,05,11,18,17.90
2014,10,05,11,19,17.90
2014,10,05,11,20,18.00
2014,10,05,11,21,18.10
2014,10,05,11,22,18.10
2014,10,05,11,23,18.10
2014,10,05,11,24,18.20
2014,10,05,11,25,18.20
2014,10,05,11,26,18.20
2014,10,05,11,27,18.20
2014,10,05,11,28,18.20
2014,10,05,11,29,18.20
2014,10,05,11,30,18.20
2014,10,05,11,31,18.30
2014,10,05,11,32,18.30
2014,10,05,11,33,18.40
2014,10,05,11,34,18.50
2014,10,05,11,35,18.50
2014,10,05,11,36,18.60
2014,10,05,11,37,18.60
2014,10,05,11,38,18.60
2014,10,05,11,39,18.60
2014,10,05,11,40,18.60
2014,10,05,11,41,18.70
2014,10,05,11,42,18.70
2014,10,05,11,43,18.80
2014,10,05,11,44,18.90
2014,10,05,11,45,18.90
2014,10,05,11,46,19.00
2014,10,05,11,47,19.10
2014,10,05,11,48,19.10
2014,10,05,11,49,19.10
2014,10,05,11,50,19.10
2014,10,05,11,51,19.10
2014,10,05,11,52,19.10
2014,10,05,11,53,19.10
2014,10,05,11,54,19.20
2014,10,05,11,55,19.20
2014,10,05,11,56,19.20
2014,10,05,11,57,19.30
2014,10,05,11,58,19.30
2014,10,05,11,59,19.30
2014,10,05,12,00,19.30
2014,10,05,12,01,19.20
2014,10,05,12,02,19.20
2014,10,05,12,03,19.20
2014,10,05,12,04,19.20
2014,10,05,12,05,19.20
2014,10,05,12,06,19.20
2014,10,05,12,07,19.20
2014,10,05,12,08,19.10
2014,10,05,12,09,19.10
2014,10,05,12,10,19.10
2014,10,05,12,11,19.10
2014,10,05,12,12,19.10
2014,10,05,12,13,19.10
2014,10,05,12,14,19.10
2014,10,05,12,15,19.20
2014,10,05,12,16,19.30
2014,10,05,12,17,19.40
2014,10,05,12,18,19.50
2014,10,05,12,19,19.50
2014,10,05,12,20,19.50
2014,10,05,12,21,19.50
2014,10,05,12,22,19.60
2014,10,05,12,23,19.60
2014,10,05,12,24,19.70
2014,10,05,12,25,19.70
2014,10,05,12,26,19.70
2014,10,05,12,27,19.80
2014,10,05,12,28,19.90
2014,10,05,12,29,19.90
2014,10,05,12,30,19.90
2014,10,05,12,31,19.90
2014,10,05,12,32,20.10
2014,10,05,12,33,20.20
2014,10,05,12,34,20.20
2014,10,05,12,35,20.20
2014,10,05,12,36,20.20
2014,10,05,12,37,20.20
2014,10,05,12,38,20.20
2014,10,05,12,39,20.20
2014,10,05,12,40,20.20
2014,10,05,12,41,20.20
2014,10,05,12,42,20.20
2014,10,05,12,43,20.20
2014,10,05,12,44,20.20
2014,10,05,12,45,20.20
2014,10,05,12,46,20.20
2014,10,05,12,47,20.20
2014,10,05,12,48,20.20
2014,10,05,12,49,20.20
2014,10,05,12,50,20.30
2014,10,05,12,51,20.30
2014,10,05,12,52,20.40
2014,10,05,12,53,20.40
2014,10,05,12,54,20.50
2014,10,05,12,55,20.60
2014,10,05,12,56,20.60
2014,10,05,12,57,20.70
2014,10,05,12,58,20.70
2014,10,05,12,59,20.70
2014,10,05,13,00,20.80
2014,10,05,13,01,20.80
2014,10,05,13,02,20.80
2014,10,05,13,03,20.80
2014,10,05,13,04,20.80
2014,10,05,13,05,20.80
2014,10,05,13,06,20.80
2014,10,05,13,07,20.80
2014,10,05,13,08,20.80
2014,10,05,13,09,20.90
2014,10,05,13,10,20.80
2014,10,05,13,11,20.70
2014,10,05,13,12,20.70
2014,10,05,13,13,20.60
2014,10,05,13,14,20.50
2014,10,05,13,15,20.60
2014,10,05,13,16,20.60
2014,10,05,13,17,20.60
2014,10,05,13,18,20.50
2014,10,05,13,19,20.50
2014,10,05,13,20,20.40
2014,10,05,13,21,20.50
2014,10,05,13,22,20.50
2014,10,05,13,23,20.50
2014,10,05,13,24,20.50
2014,10,05,13,25,20.50
2014,10,05,13,26,20.60
2014,10,05,13,27,20.70
2014,10,05,13,28,20.80
2014,10,05,13,29,21.00
2014,10,05,13,30,21.10
2014,10,05,13,31,21.10
2014,10,05,13,32,21.10
2014,10,05,13,33,21.10
2014,10,05,13,34,21.20
2014,10,05,13,35,21.30
2014,10,05,13,36,21.40
2014,10,05,13,37,21.40
2014,10,05,13,38,21.60
2014,10,05,13,39,21.60
2014,10,05,13,40,21.60
2014,10,05,13,41,21.60
2014,10,05,13,42,21.60
2014,10,05,13,43,21.60
2014,10,05,13,44,21.60
2014,10,05,13,45,21.60
2014,10,05,13,46,21.60
2014,10,05,13,47,21.50
2014,10,05,13,48,21.40
2014,10,05,13,49,21.30
2014,10,05,13,50,21.20
2014,10,05,13,51,21.20
2014,10,05,13,52,21.20
2014,10,05,13,53,21.20
2014,10,05,13,54,21.20
2014,10,05,13,55,21.30
2014,10,05,13,56,21.40
2014,10,05,13,57,21.40
2014,10,05,13,58,21.40
2014,10,05,13,59,21.40
2014,10,05,14,00,21.40
2014,10,05,14,01,21.40
2014,10,05,14,02,21.30
2014,10,05,14,03,21.30
2014,10,05,14,04,21.30
2014,10,05,14,05,21.30
2014,10,05,14,06,21.30
2014,10,05,14,07,21.30
2014,10,05,14,08,21.30
2014,10,05,14,09,21.20
2014,10,05,14,10,21.10
2014,10,05,14,11,21.10
2014,10,05,14,12,21.10
2014,10,05,14,13,21.10
2014,10,05,14,14,21.10
2014,10,05,14,15,21.20
2014,10,05,14,16,21.30
2014,10,05,14,17,21.30
2014,10,05,14,18,21.30
2014,10,05,14,19,21.30
2014,10,05,14,20,21.30
2014,10,05,14,21,21.30
2014,10,05,14,22,21.30
2014,10,05,14,23,21.30
2014,10,05,14,24,21.20
2014,10,05,14,25,21.20
2014,10,05,14,26,21.20
2014,10,05,14,27,21.10
2014,10,05,14,28,21.10
2014,10,05,14,29,21.10
2014,10,05,14,30,21.30
2014,10,05,14,31,21.50
2014,10,05,14,32,21.60
2014,10,05,14,33,21.60
2014,10,05,14,34,21.60
2014,10,05,14,35,21.60
2014,10,05,14,36,21.60
2014,10,05,14,37,21.70
2014,10,05,14,38,21.70
2014,10,05,14,39,21.70
2014,10,05,14,40,21.70
2014,10,05,14,41,21.70
2014,10,05,14,42,21.70
2014,10,05,14,43,21.70
2014,10,05,14,44,21.90
2014,10,05,14,45,21.90
2014,10,05,14,46,22.00
2014,10,05,14,47,22.10
2014,10,05,14,48,22.10
2014,10,05,14,49,22.00
2014,10,05,14,50,22.00
2014,10,05,14,51,21.90
2014,10,05,14,52,21.90
2014,10,05,14,53,22.00
2014,10,05,14,54,22.00
2014,10,05,14,55,22.10
2014,10,05,14,56,22.10
2014,10,05,14,57,22.10
2014,10,05,14,58,22.20
2014,10,05,14,59,22.20
2014,10,05,15,00,22.20
2014,10,05,15,01,22.20
2014,10,05,15,02,22.10
2014,10,05,15,03,22.10
2014,10,05,15,04,22.00
2014,10,05,15,05,22.00
2014,10,05,15,06,22.00
2014,10,05,15,07,22.00
2014,10,05,15,08,22.00
2014,10,05,15,09,22.10
2014,10,05,15,10,22.00
2014,10,05,15,11,21.90
2014,10,05,15,12,21.80
2014,10,05,15,13,21.80
2014,10,05,15,14,21.60
2014,10,05,15,15,21.50
2014,10,05,15,16,21.40
2014,10,05,15,17,21.30
2014,10,05,15,18,21.30
2014,10,05,15,19,21.30
2014,10,05,15,20,21.20
2014,10,05,15,21,21.20
2014,10,05,15,22,21.20
2014,10,05,15,23,21.20
2014,10,05,15,24,21.20
2014,10,05,15,25,21.20
2014,10,05,15,26,21.20
2014,10,05,15,27,21.20
2014,10,05,15,28,21.20
2014,10,05,15,29,21.30
2014,10,05,15,30,21.30
2014,10,05,15,31,21.30
2014,10,05,15,32,21.30
2014,10,05,15,33,21.30
2014,10,05,15,34,21.10
2014,10,05,15,35,21.00
2014,10,05,15,36,20.90
2014,10,05,15,37,20.80
2014,10,05,15,38,20.80
2014,10,05,15,39,20.80
2014,10,05,15,40,20.80
2014,10,05,15,41,20.80
2014,10,05,15,42,20.90
2014,10,05,15,43,20.90
2014,10,05,15,44,21.00
2014,10,05,15,45,21.10
2014,10,05,15,46,21.10
2014,10,05,15,47,21.10
2014,10,05,15,48,21.10
2014,10,05,15,49,21.20
2014,10,05,15,50,21.30
2014,10,05,15,51,21.40
2014,10,05,15,52,21.50
2014,10,05,15,53,21.60
2014,10,05,15,54,21.60
2014,10,05,15,55,21.60
2014,10,05,15,56,21.60
2014,10,05,15,57,21.70
2014,10,05,15,58,21.70
2014,10,05,15,59,21.70
2014,10,05,16,00,21.60
2014,10,05,16,01,21.60
2014,10,05,16,02,21.60
2014,10,05,16,03,21.60
2014,10,05,16,04,21.70
2014,10,05,16,05,21.70
2014,10,05,16,06,21.70
2014,10,05,16,07,21.80
2014,10,05,16,08,21.90
2014,10,05,16,09,21.90
2014,10,05,16,10,22.00
2014,10,05,16,11,22.00
2014,10,05,16,12,22.00
2014,10,05,16,13,22.10
2014,10,05,16,14,22.10
2014,10,05,16,15,22.10
2014,10,05,16,16,22.00
2014,10,05,16,17,22.00
2014,10,05,16,18,21.80
2014,10,05,16,19,21.80
2014,10,05,16,20,21.80
2014,10,05,16,21,21.70
2014,10,05,16,22,21.70
2014,10,05,16,23,21.70
2014,10,05,16,24,21.70
2014,10,05,16,25,21.60
2014,10,05,16,26,21.60
2014,10,05,16,27,21.40
2014,10,05,16,28,21.30
2014,10,05,16,29,21.30
2014,10,05,16,30,21.30
2014,10,05,16,31,21.30
2014,10,05,16,32,21.30
2014,10,05,16,33,21.30
2014,10,05,16,34,21.30
2014,10,05,16,35,21.30
2014,10,05,16,36,21.30
2014,10,05,16,37,21.30
2014,10,05,16,38,21.30
2014,10,05,16,39,21.30
2014,10,05,16,40,21.30
2014,10,05,16,41,21.20
2014,10,05,16,42,21.20
2014,10,05,16,43,21.30
2014,10,05,16,44,21.30
2014,10,05,16,45,21.30
2014,10,05,16,46,21.30
2014,10,05,16,47,21.30
2014,10,05,16,48,21.30
2014,10,05,16,49,21.10
2014,10,05,16,50,21.00
2014,10,05,16,51,21.00
2014,10,05,16,52,20.90
2014,10,05,16,53,20.90
2014,10,05,16,54,20.80
2014,10,05,16,55,20.70
2014,10,05,16,56,20.70
2014,10,05,16,57,20.70
2014,10,05,16,58,20.60
2014,10,05,16,59,20.60
2014,10,05,17,00,20.50
2014,10,05,17,01,20.50
2014,10,05,17,02,20.40
2014,10,05,17,03,20.40
2014,10,05,17,04,20.30
2014,10,05,17,05,20.30
2014,10,05,17,06,20.20
2014,10,05,17,07,20.20
2014,10,05,17,08,20.20
2014,10,05,17,09,20.20
2014,10,05,17,10,20.20
2014,10,05,17,11,20.20
2014,10,05,17,12,20.20
2014,10,05,17,13,20.10
2014,10,05,17,14,20.00
2014,10,05,17,15,19.90
2014,10,05,17,16,19.90
2014,10,05,17,17,19.90
2014,10,05,17,18,19.90
2014,10,05,17,19,19.90